Preview of NWS' New Version of Forecast
This preview is not operational and should not be used for support decisions.

Regional Weather Roundup (RWR)

Issued by National Weather Service (NWS)

                            
000
ASUS43 KTOP 182259
RWRKS 

WEATHER ROUNDUP FOR KANSAS
NATIONAL WEATHER SERVICE GOODLAND KS
500 PM CST MON FEB 18 2019

NOTE:  "FAIR" INDICATES FEW OR NO CLOUDS BELOW 12,000 FEET WITH NO
SIGNIFICANT WEATHER AND/OR OBSTRUCTIONS TO VISIBILITY.

KSZ001>006-013>018-027>032-041>047-190000-
NORTHWEST KANSAS
  
CITY           SKY/WX    TMP DP  RH WIND       PRES   REMARKS
GOODLAND       FLURRIES  18  11  74 S13       30.23S WCI   5          
HAYS           FLURRIES  20  13  74 E8        30.41F                  
HILL CITY      CLOUDY    20  10  65 E8        30.39S                  
RUSSELL        CLOUDY    19  13  77 NE7       30.41S                  
$$

KSZ061>065-074>080-084>089-190000-
SOUTHWEST KANSAS
  
CITY           SKY/WX    TMP DP  RH WIND       PRES   REMARKS
DODGE CITY     CLOUDY    21  13  71 NE8       30.32F                  
GARDEN CITY    CLOUDY    17  12  80 E7        30.30F HAZE             
GREAT BEND     PTSUNNY   23  13  65 NE8       30.41F                  
LIBERAL        MOSUNNY   28  13  53 E13       30.29S WCI  17          
$$

KSZ066>073-081>083-090>101-190000-
SOUTHEAST KANSAS
  
CITY           SKY/WX    TMP DP  RH WIND       PRES   REMARKS
CHANUTE        MOSUNNY   31  17  56 N10       30.46S WCI  22          
COFFEYVILLE    MOSUNNY   33  19  56 NE13      30.43F WCI  24          
HUTCHINSON     CLOUDY    23  14  68 NE8       30.43F                  
MEDICINE LODGE   N/A     28  12  51 NE12G18   30.38F WCI  18          
NEWTON         CLOUDY    24  16  71 NE9       30.44S                  
PARSONS        MOSUNNY   32  19  58 NE6       30.45S                  
WICHITA INTL   CLOUDY    29  13  51 NE12      30.42F WCI  19          
WICHITA JABRA  CLOUDY    28  13  53 NE12      30.42F WCI  18          
WICHITA MCCONL CLOUDY    29  12  50 N10       30.41F WCI  19          
WINFIELD       CLOUDY    33  13  43 NE10      30.42S WCI  25          
$$

KSZ007>012-019>026-033>040-048>060-102>105-190000-
NORTHEAST KANSAS
  
CITY           SKY/WX    TMP DP  RH WIND       PRES   REMARKS
CONCORDIA      PTSUNNY   19  12  74 NE8       30.45F                  
EMPORIA        MOSUNNY   27  18  69 NE10      30.45F WCI  17          
LAWRENCE       PTSUNNY   26  16  65 NE5       30.49F                  
MANHATTAN      MOSUNNY   25  17  72 E8        30.49S                  
OLATHE IND     PTSUNNY   25  17  72 N9        30.47F                  
OLATHE EXE     CLOUDY    26  16  65 NE7       30.47S                  
SALINA         PTSUNNY   23  14  68 E8        30.47F                  
TOPEKA BILLARD MOSUNNY   25  15  66 N7        30.50S                  
TOPEKA FORBES  SUNNY     25  15  66 N8        30.47F                  
$$